User: anonymous   Login
Location: Azul
(36.7830°S, 59.8500°W)
Time: 01:25:09
(UTC-03:00)
Language:

DOVE 4 - Orbit

View from above orbital plane
View from above orbital plane
View from above satellite
View from above satellite

Ground track
Ground track

The orbit data is extracted from the following two-line orbital elements,

1 39430U 13066Q   21295.76204790  .00000449  00000-0  88931-4 0  9999
2 39430  97.8101 211.5066 0151736  74.0028 287.7832 14.59701596421610
Epoch (UTC): 22 October 2021 18:17:20
Eccentricity: 0.0151736
inclination: 97.8101°
perigee height: 587 km
apogee height: 801 km
right ascension of ascending node: 211.5066°
argument of perigee: 74.0028°
revolutions per day: 14.59701596
mean anomaly at epoch: 287.7832°
orbit number at epoch: 42161

The dashed part of the orbit path shows where the satellite is in the earth's shadow,  

DLR